Theta_e
310 310 308 308 307 304 298 293 286 294 295 287 279 281 282 287 287 288 287 287 285 284 285 284 286 286 287 294 295 289 292 289 284 286 290 292 291 291 290 288 283 283 283 285
310 310 309 306 307 303 295 291 290 293 294 283 280 282 284 285 284 284 285 285 287 287 284 283 286 287 291 293 293 290 291 287 282 282 287 289 288 290 291 288 287 281 283 287
310 309 306 306 307 301 294 290 285 287 287 284 283 280 281 282 287 284 285 284 286 286 284 286 285 286 290 293 294 295 294 286 284 283 284 289 286 287 289 289 284 285 284 285
309 308 306 306 305 299 294 286 282 280 283 283 281 282 281 280 280 284 285 283 282 282 281 283 284 286 288 291 294 293 291 284 284 285 286 288 289 288 287 288 290 286 287 285
308 307 307 306 305 298 291 286 283 281 279 280 282 279 279 279 279 281 282 281 283 284 282 283 281 286 287 287 290 290 290 284 284 281 285 287 286 287 290 290 289 288 288 286
308 308 308 307 305 298 290 286 286 290 280 280 281 281 280 281 283 283 284 284 283 282 282 285 285 287 289 289 288 288 288 284 282 281 283 285 281 286 287 289 290 291 285 290
307 306 306 307 306 298 293 290 289 287 282 281 282 281 282 281 281 281 283 284 284 285 288 287 286 284 286 286 285 290 285 284 284 280 280 277 285 285 292 290 291 293 291 290
305 305 305 304 306 298 294 290 288 287 281 281 281 282 281 281 282 282 282 284 285 286 284 279 278 279 283 280 282 283 286 286 280 280 280 282 284 283 286 287 288 293 293 291
305 305 305 305 304 298 292 289 288 289 284 282 283 282 281 281 280 280 282 285 286 284 280 277 274 274 272 278 280 284 285 286 285 277 279 277 285 284 287 290 283 290 295 291
305 304 304 304 302 299 293 289 288 288 283 283 281 283 282 281 279 280 278 281 282 282 278 274 274 273 269 276 278 278 281 282 281 279 281 283 285 285 287 282 285 286 290 291
304 303 303 303 302 298 294 288 288 288 283 282 284 282 281 280 281 281 279 280 280 279 276 275 273 274 272 272 276 278 281 280 280 277 278 279 283 284 285 287 286 285 288 290
304 303 303 303 301 298 293 288 289 289 285 283 287 286 287 285 281 282 280 279 277 281 275 273 272 272 271 270 275 277 276 283 283 282 284 284 284 286 288 286 286 286 287 288
304 304 303 302 301 298 292 289 287 286 283 282 283 282 285 287 287 287 283 281 282 281 280 276 275 274 274 274 274 275 278 279 278 278 282 282 283 285 286 286 286 287 288 288
304 303 303 303 301 297 292 289 287 286 282 280 279 286 284 287 287 287 286 285 285 282 281 277 276 276 277 276 275 276 279 279 278 278 281 281 284 284 286 285 285 285 285 285
303 302 301 300 299 295 290 288 287 286 287 279 277 283 285 286 286 285 286 285 282 281 280 279 279 278 277 276 276 275 279 279 279 279 283 284 283 286 285 284 284 285 284 282
303 302 301 299 297 293 288 284 288 287 287 279 277 279 282 284 284 283 282 281 278 277 279 278 276 279 278 274 273 279 279 280 282 282 281 282 282 281 284 285 284 283 283 283
302 301 299 297 294 289 285 284 287 287 285 279 273 274 281 283 284 283 280 280 276 278 275 275 277 278 278 275 271 280 278 280 281 280 282 281 281 283 282 282 280 277 275 276
301 299 298 297 295 291 285 287 288 284 279 277 270 271 275 281 281 279 280 278 276 275 276 276 275 275 275 271 276 277 275 275 276 279 277 278 277 278 276 275 275 274 275 274
299 297 294 287 282 281 285 289 285 281 283 275 271 272 272 280 277 279 279 279 276 273 275 273 274 272 270 276 277 274 276 277 277 274 269 269 271 273 272 273 271 276 274 272
296 288 284 278 281 288 287 281 280 280 273 271 273 267 274 278 275 275 276 274 271 272 270 271 271 272 276 277 275 274 273 274 271 271 271 267 270 271 271 273 277 280 277 272
286 280 276 280 283 279 274 273 275 271 273 271 267 270 274 278 275 274 273 271 268 269 269 269 268 267 273 273 270 272 274 272 272 270 270 277 277 274 273 271 271 271 272 272
286 281 280 277 274 271 271 266 265 266 272 267 271 271 273 273 273 272 270 269 269 269 263 266 268 274 273 270 268 267 266 269 269 265 268 267 271 274 274 272 272 271 270 268
282 279 274 276 270 266 268 265 266 264 266 267 270 271 272 270 271 268 268 266 267 263 265 269 273 274 272 269 263 262 259 261 266 266 265 265 266 264 270 271 267 269 268 267
281 276 271 273 266 267 268 271 273 271 270 269 270 269 271 266 268 266 268 261 263 264 265 271 277 273 269 264 264 264 265 264 268 270 268 265 265 266 263 264 268 268 268 266
279 277 271 268 269 264 263 265 270 269 274 270 269 268 270 264 264 262 261 262 264 267 272 276 276 271 265 265 264 265 264 264 266 266 268 267 264 264 267 265 266 267 266 266
275 269 267 259 267 265 264 266 270 272 274 271 272 267 267 265 264 264 266 268 268 274 271 275 271 267 265 265 264 266 265 266 267 267 267 268 265 267 271 264 263 264 266 266
273 269 263 268 269 273 269 271 273 275 274 274 271 271 271 263 263 264 266 269 274 275 274 271 269 270 271 265 264 263 264 266 267 267 267 269 267 265 266 269 269 264 265 266
Wind_Speed
12 13 12 9 9 9 5 2 2 3 1 1 1 1 2 3 2 3 1 2 2 3 3 6 5 7 2 5 10 9 3 1 3 3 1 2 1 2 4 6 5 2 2 2
11 10 8 6 8 5 3 2 2 2 1 3 2 1 2 2 0 1 1 1 1 2 2 4 4 5 2 3 5 9 8 4 4 3 1 1 3 2 4 2 1 6 5 2
12 10 6 5 7 8 4 2 2 2 3 2 3 4 3 3 3 2 2 1 2 3 4 1 2 6 3 1 5 5 4 2 3 1 4 5 5 5 6 3 3 4 5 2
14 11 8 7 8 6 3 3 1 2 2 2 3 2 3 1 3 1 1 2 1 4 3 3 4 2 4 1 4 7 5 4 2 1 1 2 4 9 10 7 6 8 1 7
13 11 9 8 9 7 3 3 4 2 3 2 3 1 3 3 2 2 1 1 4 5 2 2 4 2 4 3 3 4 4 4 2 0 1 3 3 6 14 14 8 7 7 7
11 10 9 9 11 5 2 2 1 1 1 1 1 1 3 1 3 2 2 2 1 6 4 5 5 3 2 1 3 3 5 6 4 4 1 3 5 17 16 12 12 12 12 4
11 10 10 11 14 6 2 3 3 2 3 3 2 4 2 2 2 0 1 2 1 1 2 2 4 6 7 9 8 4 5 4 1 3 2 6 2 3 11 16 10 17 3 7
12 11 11 12 13 11 3 2 2 3 3 0 3 5 4 2 2 1 0 1 2 2 3 1 3 3 2 5 5 5 2 3 4 4 6 5 2 6 8 12 10 15 15 6
13 12 11 13 15 13 5 2 1 1 6 5 1 4 3 3 2 0 1 1 1 2 1 1 2 2 1 2 1 3 3 3 1 3 4 6 1 2 2 4 8 3 18 15
14 13 13 15 17 13 5 3 2 0 4 2 2 2 3 5 3 1 2 2 1 2 1 2 2 3 2 4 5 4 3 2 3 3 4 6 2 4 3 6 1 4 7 13
15 15 14 16 16 14 4 4 2 1 4 2 2 2 3 3 2 1 2 3 1 1 2 1 1 2 4 2 2 4 5 7 4 3 4 9 6 4 7 2 2 2 4 9
16 16 14 15 17 12 4 4 2 1 6 4 2 3 3 2 2 4 1 2 2 1 3 1 2 2 1 1 3 2 4 4 3 8 4 1 5 3 0 1 4 2 6 11
16 17 17 17 14 12 4 4 5 4 4 3 1 0 2 1 2 0 2 2 0 2 2 3 1 3 3 3 5 2 4 3 3 2 5 10 8 6 5 2 4 4 5 12
16 15 15 15 13 12 6 3 3 4 4 4 1 1 2 3 2 3 1 4 4 4 1 2 1 1 3 2 2 4 1 8 4 5 8 6 11 9 3 4 4 6 8 6
16 16 17 18 15 14 8 4 1 1 3 4 2 0 1 3 3 4 4 5 4 1 1 1 1 0 2 0 2 7 9 9 8 7 5 3 1 6 10 8 7 10 10 5
17 16 16 18 20 13 3 3 1 1 0 7 3 3 1 3 6 7 7 5 4 3 1 0 1 2 2 3 5 7 10 6 2 2 1 1 3 0 5 8 8 6 7 7
19 19 18 16 10 4 3 4 2 3 0 5 3 1 0 0 2 1 2 3 2 2 2 1 1 2 1 3 6 5 5 8 6 2 4 1 3 3 6 5 6 6 5 4
22 21 17 16 21 14 4 4 4 3 6 4 5 1 1 1 3 2 1 1 1 3 1 1 2 1 3 8 14 5 2 1 4 6 2 2 1 4 6 4 6 5 6 5
24 25 18 5 6 3 1 4 6 3 4 4 2 5 3 2 1 1 2 1 1 1 1 1 1 2 10 13 7 6 9 6 3 6 3 2 3 5 5 6 3 6 6 5
25 5 4 2 1 3 3 6 4 4 4 4 3 0 3 2 2 1 1 2 2 2 1 3 4 9 13 12 7 5 5 8 8 6 3 3 3 7 8 9 10 9 10 7
2 4 3 1 3 3 4 2 3 2 2 1 2 1 5 1 3 3 1 2 1 0 1 2 2 8 6 2 4 6 8 8 10 1 0 7 5 9 8 6 5 4 7 8
8 11 7 3 4 3 5 1 1 3 6 3 5 4 3 3 1 3 1 2 1 3 1 0 6 8 6 4 4 3 3 6 8 2 1 2 3 5 6 3 5 6 4 6
5 6 6 2 1 3 9 9 4 3 6 6 6 5 4 2 2 4 2 3 2 1 1 6 9 4 5 5 2 1 1 3 5 6 1 2 2 2 5 7 5 8 7 6
4 6 5 7 4 7 7 7 5 3 5 9 5 6 3 2 4 2 4 2 1 1 3 9 3 5 4 2 2 3 5 7 7 7 6 3 4 4 1 1 4 6 7 7
5 5 8 8 2 2 1 2 3 1 8 7 5 4 2 2 5 2 5 3 5 7 8 4 4 4 2 3 3 5 4 6 6 4 5 5 3 2 3 4 3 4 4 7
5 3 5 1 3 1 1 3 4 4 7 3 3 5 3 2 5 5 9 7 9 6 6 4 2 3 3 3 4 5 4 7 6 5 4 5 6 6 4 3 3 4 4 6
8 3 1 3 3 4 4 4 5 7 5 4 4 6 5 5 2 4 6 9 5 4 3 2 4 3 2 3 4 4 5 6 5 5 5 3 2 3 2 2 2 4 5 5
Wind_Direction
147 142 138 137 146 136 64 114 85 24 312 330 31 138 251 321 48 26 240 271 234 247 200 176 195 199 256 216 159 164 114 74 174 198 20 5 25 207 189 222 184 259 350 254
160 155 143 147 172 164 133 93 102 69 118 256 175 239 236 259 179 101 323 238 246 184 258 223 169 181 117 252 138 163 157 183 143 129 204 32 207 195 185 187 64 193 191 160
161 155 148 125 145 139 89 143 133 21 64 4 158 169 200 221 198 149 150 307 269 227 215 227 178 159 162 224 203 132 141 132 265 237 86 123 181 165 192 164 201 185 238 158
162 158 152 131 145 134 103 15 114 328 148 194 144 156 128 204 207 331 10 174 7 254 194 164 190 132 144 199 181 152 169 150 139 55 98 146 166 167 185 208 225 217 256 221
164 169 172 159 149 124 89 151 152 169 111 259 202 35 173 201 204 257 145 84 359 181 220 323 194 175 179 193 181 146 190 136 132 170 255 208 213 216 205 210 220 251 255 243
172 185 188 178 158 123 116 127 63 189 122 190 224 176 146 213 167 81 8 91 43 70 34 20 6 324 27 42 145 131 146 141 162 186 335 127 283 220 206 205 208 203 204 194
186 197 199 192 175 154 129 170 148 138 143 237 209 155 130 145 279 210 126 154 305 115 311 287 337 23 46 59 33 27 143 126 130 128 173 222 98 330 216 221 237 223 192 153
186 196 197 191 180 147 112 140 160 149 120 157 185 147 116 119 342 84 351 115 110 204 210 199 5 360 143 21 26 14 345 165 115 183 217 316 200 182 181 192 255 219 224 179
179 187 184 169 159 143 102 113 74 196 124 208 168 143 155 146 147 275 237 128 313 219 94 127 171 171 348 156 109 16 93 63 140 170 202 217 14 152 173 170 273 323 207 175
168 172 176 158 155 150 120 99 43 257 107 133 257 166 155 130 119 153 288 300 212 341 141 106 166 146 347 172 163 157 116 77 200 176 239 282 210 161 199 176 313 335 228 181
159 162 163 160 156 152 115 102 53 15 96 118 297 338 141 129 154 165 156 179 166 71 65 221 157 182 184 195 192 189 177 163 175 130 206 248 160 140 201 35 302 292 191 170
158 154 154 165 158 165 126 106 117 85 72 96 9 15 39 41 124 128 55 44 146 145 104 176 112 176 179 17 209 198 210 216 187 210 216 73 204 252 215 178 273 226 182 154
160 156 158 162 164 163 106 121 141 86 105 71 127 349 17 55 60 31 129 188 245 99 15 132 103 237 157 192 234 239 235 184 237 194 209 229 231 235 240 219 233 163 170 161
160 155 156 158 163 147 120 119 149 94 105 117 162 137 320 295 258 183 133 121 117 92 94 107 137 250 199 255 327 251 235 155 186 266 272 283 245 228 225 205 188 136 134 151
159 155 148 147 141 121 90 88 97 306 131 138 146 96 24 31 69 98 125 123 104 100 113 154 256 64 218 186 271 241 190 184 185 211 209 195 221 200 168 174 181 155 140 114
152 153 152 143 138 128 88 56 19 10 144 110 127 337 239 76 80 81 72 78 80 86 109 56 270 253 261 251 248 254 203 213 210 207 149 131 35 282 142 158 159 152 144 147
146 142 139 137 126 77 110 174 153 126 7 95 95 11 52 290 135 70 70 39 71 70 113 172 230 191 253 245 249 256 211 214 198 203 132 355 217 193 159 120 106 78 76 82
140 133 126 111 102 109 53 11 73 88 96 62 117 72 258 249 175 188 51 105 69 31 96 133 220 285 227 253 239 253 230 282 224 208 170 2 6 106 112 97 130 127 151 140
133 127 120 81 39 65 93 120 67 53 101 128 113 156 180 157 89 141 139 152 161 352 218 180 240 208 230 227 218 219 198 195 197 131 115 87 145 155 144 132 128 154 168 172
133 87 67 79 58 205 33 9 33 15 354 36 127 8 135 165 159 106 127 29 109 222 53 306 233 257 268 259 226 205 188 191 138 122 201 174 215 188 187 203 187 185 175 154
73 107 90 130 347 59 33 73 92 339 323 148 123 175 136 229 139 154 320 141 113 169 90 268 269 268 244 265 266 242 202 177 194 146 287 181 164 179 184 214 207 176 163 184
154 116 101 99 54 51 108 205 22 219 217 170 147 163 130 133 95 105 65 132 151 211 2 302 258 251 263 274 265 314 234 173 164 166 38 200 197 175 177 152 176 189 157 148
90 70 85 120 82 74 175 190 235 243 175 177 166 130 121 127 77 83 115 149 201 301 167 238 239 275 269 253 241 227 181 179 146 169 168 100 162 143 161 177 193 166 179 174
100 137 155 194 186 240 184 187 179 163 119 139 118 109 127 118 85 125 120 73 228 83 259 237 247 240 261 287 238 159 181 190 174 174 172 180 167 186 237 219 158 163 179 179
144 130 206 194 175 50 103 108 114 98 143 127 110 85 103 96 107 50 116 105 238 221 232 237 243 250 265 247 206 205 193 178 188 168 177 177 158 159 204 212 194 181 161 172
122 99 111 55 90 18 174 196 128 181 151 113 75 118 105 151 129 146 210 153 221 231 221 233 252 245 230 221 199 204 174 169 161 162 165 157 178 190 198 142 192 205 193 187
161 186 43 137 109 161 147 158 160 161 145 174 137 154 183 110 88 236 198 212 221 216 231 225 227 226 252 175 147 153 153 155 160 169 193 187 146 131 142 233 197 198 209 212